This demonstration page uses our WeatherBlox Daily Observations layout. Learn more.

Left ArrowRight Arrow

Hourly Observations for September 29, 2021

Temp ( °F °C ) Dew Point ( °F °C ) Humidity (%) Winds ( mph kmh ) Pressure ( in mb ) Visibility ( mi km ) Precip ( " mm )
12:15 am 00:15 Clear 66 19 63 17 88 88 NNE 8 13 29.95 1014 10 16 0.00 0.00
12:35 am 00:35 Clear 64 18 63 17 94 94 NE 7 11 29.96 1015 10 16 0.00 0.00
12:55 am 00:55 Partly Cloudy 64 18 63 17 94 94 NNE 6 9 29.96 1015 10 16 0.00 0.00
1:15 am 01:15 Partly Cloudy 64 18 61 16 88 88 NE 5 7 29.96 1015 10 16 0.00 0.00
1:35 am 01:35 Clear 63 17 61 16 94 94 NE 3 6 29.97 1015 10 16 0.00 0.00
1:55 am 01:55 Partly Cloudy 63 17 61 16 94 94 NE 3 6 29.97 1015 10 16 0.00 0.00
2:15 am 02:15 Mostly Cloudy 63 17 61 16 94 94 Calm 29.97 1015 10 16 0.00 0.00
2:35 am 02:35 Partly Cloudy 63 17 61 16 94 94 NNE 5 7 29.97 1015 10 16 0.00 0.00
2:55 am 02:55 Clear 63 17 59 15 88 88 NNE 3 6 29.97 1015 10 16 0.00 0.00
3:15 am 03:15 Clear 63 17 59 15 88 88 NNE 3 6 29.97 1015 10 16 0.00 0.00
3:35 am 03:35 Mostly Cloudy 63 17 59 15 88 88 NNE 5 7 29.98 1015 10 16 0.00 0.00
3:55 am 03:55 Partly Cloudy 61 16 59 15 94 94 Calm 29.98 1015 10 16 0.00 0.00
4:15 am 04:15 Clear 61 16 59 15 94 94 NNE 5 7 30.00 1016 10 16 0.00 0.00
4:35 am 04:35 Partly Cloudy 61 16 57 14 88 88 NNE 6 9 30.01 1016 10 16 0.00 0.00
4:55 am 04:55 Clear 61 16 55 13 83 83 NE 9 15 30.02 1016 10 16 0.00 0.00
5:15 am 05:15 Clear 59 15 55 13 88 88 NE 9 15 30.03 1017 10 16 0.00 0.00
5:35 am 05:35 Partly Cloudy 59 15 54 12 82 82 NE 9 15 30.04 1017 10 16 0.00 0.00
5:55 am 05:55 Mostly Cloudy 59 15 54 12 82 82 NE 8 13 30.04 1017 10 16 0.00 0.00
6:15 am 06:15 Cloudy 59 15 54 12 82 82 NE 8 13 30.05 1018 10 16 0.00 0.00
6:35 am 06:35 Cloudy 59 15 54 12 82 82 NE 7 11 30.06 1018 10 16 0.00 0.00
6:55 am 06:55 Mostly Cloudy 59 15 54 12 82 82 NE 7 11 30.07 1018 10 16 0.00 0.00
7:15 am 07:15 Partly Cloudy 57 14 54 12 88 88 NE 7 11 30.07 1018 10 16 0.00 0.00
7:35 am 07:35 Sunny 57 14 52 11 82 82 NNE 7 11 30.08 1019 10 16 0.00 0.00
7:55 am 07:55 Partly Cloudy 57 14 52 11 82 82 NE 9 15 30.09 1019 10 16 0.00 0.00
8:15 am 08:15 Sunny 59 15 52 11 77 77 NE 5 7 30.09 1019 10 16 0.00 0.00
8:35 am 08:35 Partly Cloudy 59 15 52 11 77 77 NNE 8 13 30.10 1019 10 16 0.00 0.00
8:55 am 08:55 Sunny 59 15 52 11 77 77 NE 8 13 30.10 1019 10 16 0.00 0.00
9:15 am 09:15 Partly Cloudy 59 15 50 10 72 72 NNE 7 11 30.10 1019 10 16 0.00 0.00
9:35 am 09:35 Partly Cloudy 59 15 50 10 72 72 NNE 8 13 30.11 1020 10 16 0.00 0.00
9:55 am 09:55 Sunny 61 16 50 10 68 68 NNE 8 13 30.11 1020 10 16 0.00 0.00
10:15 am 10:15 Sunny 61 16 50 10 68 68 NNE 7 11 30.11 1020 10 16 0.00 0.00
10:35 am 10:35 Sunny 63 17 48 9 59 59 NNE 8 13 30.11 1019 10 16 0.00 0.00
10:55 am 10:55 Sunny 63 17 48 9 59 59 NE 7 11 30.11 1019 10 16 0.00 0.00
11:15 am 11:15 Sunny 64 18 50 10 60 60 NNE 3 6 30.10 1019 10 16 0.00 0.00
11:35 am 11:35 Sunny 64 18 46 8 52 52 N 7 11 30.10 1019 10 16 0.00 0.00
11:55 am 11:55 Sunny 64 18 48 9 56 56 N 8 13 30.09 1019 10 16 0.00 0.00
12:15 pm 12:15 Sunny 64 18 46 8 52 52 NE 5 7 30.09 1019 10 16 0.00 0.00
12:35 pm 12:35 Sunny 66 19 48 9 52 52 NNE 6 9 30.08 1019 10 16 0.00 0.00
12:55 pm 12:55 Sunny 68 20 46 8 46 46 NE 5 7 30.07 1018 10 16 0.00 0.00
1:15 pm 13:15 Sunny 68 20 48 9 49 49 NNE 3 6 30.08 1019 10 16 0.00 0.00
1:35 pm 13:35 Sunny 68 20 48 9 49 49 Calm 30.07 1018 10 16 0.00 0.00
1:55 pm 13:55 Sunny 70 21 50 10 50 50 NNE 6 9 30.06 1018 10 16 0.00 0.00
2:15 pm 14:15 Sunny 70 21 50 10 50 50 N 3 6 30.05 1018 10 16 0.00 0.00
2:35 pm 14:35 Sunny 70 21 50 10 50 50 NNW 8 13 30.04 1017 10 16 0.00 0.00
2:55 pm 14:55 Sunny 70 21 52 11 53 53 NNW 7 11 30.04 1017 10 16 0.00 0.00
3:15 pm 15:15 Sunny 70 21 50 10 50 50 NNW 3 6 30.04 1017 10 16 0.00 0.00
3:35 pm 15:35 Sunny 70 21 50 10 50 50 NNW 9 15 30.04 1017 10 16 0.00 0.00
3:55 pm 15:55 Sunny 72 22 48 9 44 44 NNW 10 17 30.03 1017 10 16 0.00 0.00
4:15 pm 16:15 Sunny 70 21 48 9 46 46 N 7 11 30.03 1017 10 16 0.00 0.00
4:35 pm 16:35 Sunny 70 21 50 10 50 50 N 7 11 30.03 1017 10 16 0.00 0.00
4:55 pm 16:55 Sunny 70 21 52 11 53 53 WNW 3 6 30.03 1017 10 16 0.00 0.00
5:15 pm 17:15 Sunny 70 21 52 11 53 53 NNE 7 11 30.04 1017 10 16 0.00 0.00
5:35 pm 17:35 Sunny 70 21 52 11 53 53 N 5 7 30.04 1017 10 16 0.00 0.00
5:55 pm 17:55 Sunny 70 21 50 10 50 50 N 7 11 30.04 1017 10 16 0.00 0.00
6:35 pm 18:35 Sunny 68 20 50 10 53 53 Calm 30.05 1018 10 16 0.00 0.00
6:55 pm 18:55 Sunny 68 20 52 11 56 56 NNE 3 6 30.06 1018 10 16 0.00 0.00
7:15 pm 19:15 Clear 68 20 52 11 56 56 NNE 3 6 30.06 1018 10 16 0.00 0.00
7:35 pm 19:35 Clear 64 18 52 11 64 64 Calm 30.06 1018 10 16 0.00 0.00
7:55 pm 19:55 Clear 64 18 52 11 64 64 NE 3 6 30.06 1018 10 16 0.00 0.00
8:15 pm 20:15 Clear 63 17 54 12 73 73 Calm 30.08 1018 10 16 0.00 0.00
8:35 pm 20:35 Clear 61 16 55 13 83 83 Calm 30.08 1019 10 16 0.00 0.00
8:55 pm 20:55 Clear 59 15 54 12 82 82 Calm 30.08 1019 10 16 0.00 0.00
9:15 pm 21:15 Clear 57 14 55 13 94 94 Calm 30.09 1019 10 16 0.00 0.00
9:35 pm 21:35 Clear 55 13 54 12 94 94 Calm 30.09 1019 10 16 0.00 0.00
9:55 pm 21:55 Clear 55 13 54 12 94 94 Calm 30.10 1019 10 16 0.00 0.00
10:15 pm 22:15 Clear 55 13 54 12 94 94 Calm 30.10 1019 10 16 0.00 0.00
10:35 pm 22:35 Clear 54 12 54 12 100 100 Calm 30.10 1019 10 16 0.00 0.00
10:55 pm 22:55 Clear 54 12 54 12 100 100 Calm 30.11 1020 10 16 0.00 0.00
11:15 pm 23:15 Clear 54 12 52 11 94 94 Calm 30.11 1020 10 16 0.00 0.00
11:35 pm 23:35 Clear 54 12 52 11 94 94 W 3 6 30.11 1020 10 16 0.00 0.00
11:55 pm 23:55 Clear 54 12 52 11 94 94 W 5 7 30.12 1020 10 16 0.00 0.00

Powered by AerisWeather